Location: Newark
(34.0131°N, 4.3314°W)
Time: 01:15:03
(UTC+00:00)

Transit 2A Rocket - All Passes

Search period start: 22 October 2019 00:00
Search period end: 01 November 2019 00:00
Orbit: 594 x 909 km, 66.7° (Epoch: 20 October)

Date Brightness Start Highest point End Pass type
(mag) Time Alt. Az. Time Alt. Az. Time Alt. Az.
22 Oct - 03:42:20 10° S 03:47:18 40° ESE 03:51:51 10° NE visible
22 Oct - 05:26:01 10° WSW 05:29:54 21° NW 05:33:33 10° N visible
22 Oct - 12:31:41 10° NNE 12:33:00 11° NE 12:34:19 10° ENE daylight
22 Oct - 14:11:37 10° NNW 14:15:52 62° WSW 14:20:17 10° SSE daylight
23 Oct - 03:00:57 10° SSE 03:04:54 22° ESE 03:08:37 10° ENE visible
23 Oct - 04:42:25 10° SW 04:47:15 37° WNW 04:51:42 10° N visible
23 Oct - 13:29:07 10° NNW 13:33:23 63° ENE 13:37:49 10° SE daylight
24 Oct - 02:21:18 10° ESE 02:22:35 11° ESE 02:23:52 10° E visible
24 Oct - 03:59:26 10° SSW 04:04:41 70° WNW 04:09:29 10° NNE visible
24 Oct - 12:46:58 10° N 12:50:49 31° ENE 12:54:46 10° ESE daylight
24 Oct - 14:30:02 10° WNW 14:33:05 19° WSW 14:36:15 10° SSW daylight
25 Oct - 03:16:59 10° SSW 03:22:11 62° ESE 03:26:57 10° NE visible
25 Oct - 05:02:16 10° W 05:05:00 14° NW 05:07:38 10° NNW visible
25 Oct - 12:05:17 10° NNE 12:08:07 17° NE 12:10:59 10° E daylight
25 Oct - 13:46:43 10° NW 13:50:44 38° WSW 13:54:54 10° S daylight
26 Oct - 02:35:07 10° S 02:39:45 32° ESE 02:44:04 10° NE visible
26 Oct - 04:18:03 10° WSW 04:22:16 25° WNW 04:26:13 10° N visible
26 Oct - 13:03:59 10° NNW 13:08:18 81° WSW 13:12:48 10° SSE daylight
27 Oct - 01:54:05 10° SSE 01:57:24 17° ESE 02:00:33 10° ENE night (unlit)
27 Oct - 03:34:40 10° SW 03:39:39 46° WNW 03:44:13 10° NNE visible
27 Oct - 12:21:36 10° NNW 12:25:47 49° ENE 12:30:08 10° SE daylight
27 Oct - 14:06:16 10° W 14:07:52 12° WSW 14:09:30 10° SW daylight
28 Oct - 02:51:52 10° SSW 02:57:07 87° WNW 03:01:54 10° NNE night (unlit)
28 Oct - 11:39:35 10° N 11:43:11 25° ENE 11:46:52 10° ESE daylight
28 Oct - 13:22:03 10° NW 13:25:34 24° WSW 13:29:12 10° SSW daylight
29 Oct - 02:09:37 10° S 02:14:38 49° ESE 02:19:16 10° NE night (unlit)
29 Oct - 03:54:02 10° W 03:57:20 17° NW 04:00:30 10° NNW visible
29 Oct - 10:58:12 10° NNE 11:00:26 14° NE 11:02:41 10° E daylight
29 Oct - 12:38:59 10° NW 12:43:11 49° WSW 12:47:33 10° S daylight
30 Oct - 01:27:59 10° SSE 01:32:14 26° ESE 01:36:12 10° NE night (unlit)
30 Oct - 03:10:09 10° WSW 03:14:38 31° WNW 03:18:50 10° N night (unlit)
30 Oct - 11:56:23 10° NNW 12:00:43 79° ENE 12:05:14 10° SSE daylight
31 Oct - 00:47:29 10° SE 00:49:54 13° ESE 00:52:13 10° ENE night (unlit)
31 Oct - 02:26:59 10° SW 02:32:03 57° WNW 02:36:43 10° NNE night (unlit)
31 Oct - 11:14:07 10° N 11:18:10 38° ENE 11:22:22 10° SE daylight
31 Oct - 12:57:46 10° WNW 13:00:21 15° WSW 13:03:01 10° SW daylight
